Погода Хмельницкий

Погода Хмельницкий : погода сейчас, прогноз погоды и архив. Всё, что Вы хотите узнать о погоде Хмельницкий!

Хотите узнать прогноз погоды Хмельницкий? Тогда Вам сюда: Погода Хмельницкий

Поиск расширенной информации на нашем сайте:

Другие новости

Новости СМИ2

Главная страница сайта

Новости сайта

03.07.2017

Напоминаем, что на нашем специализированном сайте Метеоцентр.Азия вы можете получить высокодетализированные автоматические прогнозы погоды по пунктам России, СНГ и мира в авиационном формате (включающие направление и скорость ветра, видимость, явления погоды, количество и форму облачности, нижнюю и верхнюю границу облачности).


Погода Хмельницкий - сегодня

Время (UTC), дата Ветер
(°,м/с) 
Видим.   Явления Облачность Т
(°С)
Тd
(°С)
f(%) Тe
(°С)
Pmin
(гПа)
dP
(гПа)
Po
(мм)
O2
(г/м3)
Тmin Tmax R s Состояние
почвы
18 14.02.18 070 (В) 10 км  слаб. снег  10/8 300 м средняя 
[Frnb|As op]
-3.7 -5.2 89 -7  1020.9  733  300    -0.8     
00 15.02.18 070 (В) 10 км  слаб. снег  10/8 360 м средняя 
[Frnb|As op]
-4.4 -5.6 91 -8  1022.3  0.4  734  301           
03 15.02.18 060 (СВ) 10 км  слаб. снег  10/8 300 м средняя 
[Frnb|As op]
-5.2 -6.2 93 -9  1022.9  0.4  734  302           
06 15.02.18 060 (СВ) 4000 м  слаб. снег  10/8 100 м средняя 
[Frnb|As op]
-5.7 -6.8 92 -9  1023.8  0.9  735  303  -5.9       
09 15.02.18 060 (СВ) 2000 м  снег  10/5 270 м средняя 
[Frnb|As op]
-3.6 -6.1 83 -7  1024.9  1.3  736  301           
12 15.02.18 020 (С) 10 км  слаб. снег  10/5 330 м средняя 
[Frnb|As op]
-1.8 -4.5 82 -4  1024.8  0.2  736  299           
15 15.02.18 040 (СВ) 10 км  слаб. снег  10/6 300 м средняя 
[Frnb|As op]
-2.6 -3.9 91 -5  1025.9  0.9  736  300           
18 15.02.18 070 (В) 10 км  слаб. снег  10/5 300 м средняя 
[Frnb|As op]
-3.8 -5.3 89 -6  1026.8  0.7  737  302    -1.8     
21 15.02.18 100 (В) 10 км  {снег}  10/10 180 м 
[St]
-3.5 -4.6 92 -3  1027.2  0.4  737  301           
00 16.02.18 тихо ()   4000 м  дымка{снег}  10/10 150 м 
[St]
-3 -3.7 95 -3  1027.2  0.1  737  301           
03 16.02.18 090 (В) 2000 м  дымка  10/10 100 м 
[St]
-2.8 -3.2 97 -2  1026.5  -0.6  737  300           
06 16.02.18 140 (ЮВ) 0500 м  слаб. ливневой снег{туман}  ?/?  
-1.8 -1.8 100 -3  1026.4  0.1  737  299  -3.8    0.0  10  равномерный
сухой снег
100% 
09 16.02.18 170 (Ю) 1000 м  в посл. час ливневой снег{туман}  10/10 100 м 
[St]
-0.8 -1.5 95 -3  1026  -0.3  737  298           
12 16.02.18 200 (Ю) 4000 м  дымка{ливн. осадки, туман}  10/10 240 м 
[St]
+0.3 -1.7 86 -1  1025.6  -0.2  737  297           
15 16.02.18 230 (ЮЗ) 4000 м  дымка  10/10 1200 м 
[Sc]
-0.1 -2.1 86 +1  1025.2  -0.4  736  297           
18 16.02.18 220 (ЮЗ) 4000 м  дымка  10/10 1000 м 
[Sc]
-0.8 -2.3 90 -2  1025.8  0.4  737  298    +0.4  0.0     
21 16.02.18 270 (З) 4000 м  дымка  9/4 1380 м средняя 
[Sc|Ac trans]
-1.6 -3 90 -4  1026  0.1  737  299           
00 17.02.18 270 (З) 10 км    10/8 420 м средняя 
[Sc|Ac und]
-1.8 -3.5 88 -4  1026.3  0.3  737  299           
03 17.02.18 280 (З) 4000 м  слаб. переохл. дождь (гололёд){снег}  10/10 480 м 
[Ns]
-1 -1.7 95 -3  1026.2  737  298           
06 17.02.18 280 (З) 10 км  {снег, дождь}  9/8 1000 м средняя 
[Sc|Ac trans]
-2 -4.8 81 -4  1026.7  0.3  737  300  -2.8    0.1     
09 17.02.18 260 (З) 10 км    8/3 1000 м средняя 
[Sc|Ac trans]
-0.5 -3.9 78 -2  1026.2  -0.2  737  298           
12 17.02.18 260 (З) 10 км    8/4 700 м средняя 
[Sc|Ac trans]
+1.5 -3.6 69 -1  1025  -0.9  736  295           
15 17.02.18 250 (З) 10 км    4/0 средняя, верхняя 
[Ac trans|Ci fib]
+0.6 -5.1 66 1024.2  -0.9  736  296           
18 17.02.18 220 (ЮЗ) 10 км    ясно 
-2.6 -5.5 80 -4  1024.3  -0.4  735  300           
21 17.02.18 230 (ЮЗ) 10 км    ясно 
-4.9 -6.2 91 -6  1024.1  -0.6  735  302           
Время (UTC), дата Ветер
(°,м/с) 
Видим.   Явления Облачность Т
(°С)
Тd
(°С)
f(%) Тe
(°С)
Pmin
(гПа)
dP
(гПа)
Po
(мм)
O2
(г/м3)
Тmin Tmax R s Состояние
почвы

Для получения пояснительной информации подведите курсор к названию столбца.

ПОГОДА Хмельницкий - архив

Всё, что Вы хотите узнать о погоде Хмельницкий - удобно и подробно!

Выберите нужную дату (начиная с 1 января 2015* года) и нажмите кнопку "Найти".
Будут отображены архивные сводки погоды по пункту Хмельницкий, начиная с указанной даты.


Отображать данные в формате CSV (для использования в таблицах Excel)


Внимание! Наш архив погоды предназначен исключительно для личного некоммерческого использования в познавательных целях. Если Вам необходимы официальные справки о состоянии погоды (для производственных, юридических, коммерческих и т.п. целей), обращайтесь в органы Росгидромета.

*Примечание: данная дата относится к архиву по метеостанциям СССР (Россия, СНГ, Балтия).
Архив по метеостанциям Зарубежной Европы и Азии (кроме Китая) хранится 10 дней, по другим регионам земного шара (Китай, Африка, Америка, Австралия, Океания) - 1 день.

Хмельницкий - район местоположения метеостанции


Название, широта, долгота, высота метеостанции:
Хмельницкий 49.4°ш. 27°д. 350 м над ур. моря [Украина]

Дополнительная информация

В oтличие oт бoльшинства пoгoдных сайтoв мы публикуем пoдрoбную метеoинфoрмацию в детальнoм прoфессиoнальнoм фoрмате.

Характеристики температуры и влажнoсти вoздуха измеряются на высoте 2 м в тени вдали oт зданий и деревьев.
Скoрoсть ветра измеряется на высoте 10 м (на урoвне рoста челoвека скoрoсть ветра ниже в 1.5-2 раза). Если метеoстанция нахoдится в гoрoде или в лесу, тo скoрoсть ветра занижена на 2-4 м/с пo сравнению с oткрытым местoм. Скoрoсть ветра над акватoриями крупных рек и oзёр, а также на вершинах хoлмoв на 2-5 м/с выше, чем в oбычных услoвиях.
Атмoсфернoе давление в разных тoчках местнoсти мoжет значительнo oтличаться oт давления на метеoстанции, в зависимoсти oт услoвий рельефа (при пoдъёме на 10 м давление пoнижается примернo на 1 мм рт.ст.).